Voltar ao catálogo

ARIANE 1 R/B

AtivoHEO
NORAD 15876·ROCKET BODY·🇫🇷 France

Lançado Jul 2, 1985 de Guiana Space Centre

Loading…

Próximas Passagens (próximas 24 horas)

TLE

AtualizadoSource: Space-Track

Época: Sep 14, 2026, 03:19 UTC

1 15876U 85056B   26257.13856459  .00000259  00000-0  10872-2 0  9990
2 15876   9.0337  59.1589 6180232 289.0328  16.3312  3.58810644188891

Acompanhe ARIANE 1 R/B em tempo real com AllMySat

Download on the App Store